Location: Monfort
(47.1967°N, 0.2115°W)
Time: 10:57:16
(UTC+00:00)

Cosmos 1400 Rocket - Pass Details

Date: 24 October 2020
Orbit: 521 x 568 km, 81.2° (Epoch: 27 November)

Event Time Altitude Azimuth Distance (km) Brightness Sun altitude
Rises 17:36:57 0° 153° (SSE) 2,757 6.2 -7.5°
Reaches altitude 10° 17:39:33 10° 137° (SE) 1,863 5.2 -7.9°
Maximum altitude 17:42:34 20° 89° (E) 1,334 4.2 -8.4°
Drops below altitude 10° 17:45:36 10° 42° (NE) 1,864 5.1 -8.9°
Sets 17:48:12 0° 25° (NNE) 2,759 6.1 -9.4°
